#timestamp,LO_Frequency,Hit,StdDev 
1709222415.9,286046999.0,N
1709222435.7,286046999.6,N
1709222455.6,286046996.5,N
1709222475.4,286046999.4,N
1709222495.3,286046996.6,N
1709222515.1,286046996.8,N
1709222516.0,286046996.8,N
1709222535.8,286046998.5,N
1709222555.7,286047000.8,N
1709222575.5,286047000.7,N
1709222595.3,286047000.2,N
1709222615.2,286047000.0,N
1709222635.0,286047000.9,N
1709222635.9,286047000.9,N
1709222655.8,286047000.5,N
1709222675.6,286047000.5,N
1709222695.4,286046998.7,N
1709222715.3,286046999.6,N
1709222735.1,286046997.0,N
1709222755.9,286046998.2,N
1709222775.7,286047000.8,N
1709222795.5,286047001.1,N
1709222815.4,286046998.3,N
1709222835.2,286047001.0,N
1709222855.0,286046998.5,N
1709222855.9,286046998.5,N
1709222875.8,286046999.4,N
1709222895.6,286047000.8,N
1709222915.5,286046999.5,N
1709222935.3,286046997.2,N
1709222955.1,286046997.0,N
1709222975.9,286046999.3,N
1709222995.7,286046996.5,N
1709223015.6,286046996.8,N
1709223035.4,286046997.1,N
1709223055.2,286046999.4,N
1709223075.1,286046999.3,N
1709223076.0,286046999.3,N
1709223095.8,286046999.1,N
1709223115.6,286047001.2,N
1709223135.5,286047001.2,N
1709223155.3,286046999.3,N
1709223175.2,286046998.3,N
1709223195.9,286046999.3,N
1709223215.7,286046998.4,N
1709223235.6,286046999.0,N
1709223255.4,286046998.3,N
1709223275.3,286046998.1,N
1709223295.1,286046998.1,N
1709223296.0,286046998.1,N
1709223315.8,286047000.5,N
1709223335.7,286047001.0,N
1709223355.5,286046998.8,N
1709223375.3,286046998.6,N
1709223395.2,286046999.6,N
1709223415.0,286046999.5,N
1709223415.9,286046999.5,N
1709223435.8,286046999.4,N
1709223455.6,286046999.1,N
1709223475.4,286046999.0,N
1709223495.3,286046999.4,N
1709223515.1,286046999.3,N
1709223535.9,286046996.5,Y
1709223555.7,286046998.9,P
1709223575.5,286047001.2,P
1709223595.4,286046998.5,N
1709223615.2,286046998.3,N
1709223635.0,286046998.1,N
1709223635.9,286046998.1,N
1709223655.8,286046998.3,N
1709223675.6,286047000.2,N
1709223695.5,286047000.8,N
1709223715.3,286046998.3,N
1709223735.1,286046998.7,N
1709223755.9,286046998.9,N
1709223775.7,286046998.9,N
1709223795.6,286046998.9,N
1709223815.4,286046998.7,N
1709223835.2,286046998.6,N
1709223855.1,286046998.6,N
1709223856.0,286046998.6,N
1709223875.8,286047000.4,N
1709223895.6,286047001.1,N
1709223915.5,286047000.7,N
1709223935.3,286046999.7,N
1709223955.2,286046998.9,N
1709223975.9,286046999.6,N
1709223995.7,286046998.8,N
1709224015.6,286046998.6,N
1709224035.4,286047000.1,N
1709224055.2,286047000.3,N
1709224075.1,286047000.0,N
1709224076.0,286047000.0,N
1709224095.8,286047001.2,N
1709224115.7,286047000.4,N
1709224135.5,286047000.8,N
1709224155.3,286047000.7,N
1709224175.2,286047002.8,N
1709224195.9,286047002.1,N
1709224215.7,286047002.0,N
1709224235.6,286047002.2,N
1709224255.4,286047002.8,N
1709224275.3,286047000.6,N
1709224295.1,286047000.6,N
1709224296.0,286047000.6,N
1709224315.8,286046998.7,N
1709224335.7,286046998.8,N
1709224355.5,286046999.4,N
1709224375.3,286046996.9,N
1709224395.2,286046997.8,N
1709224415.0,286046996.8,N
1709224415.9,286046996.8,N
1709224435.8,286046997.3,N
1709224455.6,286046999.1,N
1709224475.4,286046998.8,N
1709224495.3,286046999.3,N
1709224515.1,286046999.3,N
1709224535.8,286046998.7,N
1709224555.7,286046998.7,N
1709224575.5,286047001.0,N
1709224595.4,286047000.3,N
1709224615.2,286047000.5,N
1709224635.0,286046999.8,N
1709224635.9,286046999.8,N
1709224655.8,286047000.2,N
1709224675.6,286047000.3,N
1709224695.4,286046998.1,N
1709224715.3,286047000.5,N
1709224735.1,286046998.8,N
1709224755.9,286046998.5,N
1709224775.7,286046998.7,N
1709224795.5,286046996.9,N
1709224815.4,286047000.9,N
1709224835.2,286046998.1,N
1709224855.0,286047001.1,N
1709224855.9,286047001.1,N
1709224875.8,286046998.5,N
1709224895.6,286046998.2,N
1709224915.5,286046999.9,N
1709224935.3,286046999.9,N
1709224955.1,286046999.7,N
1709224975.9,286047000.1,N
1709224995.7,286046998.5,N
1709225015.5,286047001.1,N
1709225035.4,286047000.4,N
1709225055.2,286047000.6,N
1709225075.1,286046999.9,N
1709225076.0,286046999.9,N
1709225095.8,286047002.5,N
1709225115.6,286047002.5,N
1709225135.5,286047002.2,N
1709225155.3,286047001.9,N
1709225175.2,286047001.4,N
1709225195.9,286047002.4,N
1709225215.7,286047000.7,N
1709225235.6,286047002.4,N
1709225255.4,286047004.3,N
1709225275.2,286047001.3,N
1709225295.1,286047001.8,N
1709225296.0,286047001.8,N
1709225315.8,286047001.3,N
1709225335.7,286047001.4,N
1709225355.5,286047002.1,N
1709225375.3,286047001.8,N
1709225395.2,286047002.0,N
1709225415.0,286047002.6,N
1709225415.9,286047002.6,N
1709225435.7,286047000.0,N
1709225455.6,286047000.3,N
1709225475.4,286047000.0,N
1709225495.3,286047002.5,N
1709225515.1,286047002.4,N
1709225516.0,286047002.4,N
1709225535.8,286046999.9,N
1709225555.7,286047000.8,N
1709225575.5,286047000.2,N
1709225595.4,286047000.4,N
1709225615.2,286047001.0,N
1709225635.0,286046998.7,N
1709225635.9,286046998.7,N
1709225655.8,286046998.1,N
1709225675.6,286047001.1,N
1709225695.4,286047000.1,N
1709225715.3,286047000.4,N
1709225735.1,286046998.5,N
1709225755.9,286046998.3,N
1709225775.7,286046999.9,N
1709225795.5,286047001.5,N
1709225815.4,286047002.3,N
1709225835.2,286047002.4,N
1709225855.0,286047002.8,N
1709225855.9,286047002.8,N
1709225875.8,286047002.6,N
1709225895.6,286047002.7,N
1709225915.5,286047002.8,N
1709225935.3,286046999.8,N
1709225955.1,286047000.0,N
1709225975.9,286047000.4,N
1709225995.7,286047002.1,N
